Location: Aulus
(42.7909°N, 1.3399°E)
Time: 20:01:07
(UTC+00:00)

USA 229 DEB - Pass Details

Date: 19 May 2025
Orbit: 872 x 1339 km, 63.4° (Epoch: 20 June)

Event Time Altitude Azimuth Distance (km) Brightness Sun altitude
Exits shadow 23:20:43 72° 166° (SSE) 1,001 3.3 -26.8°
Maximum altitude 23:21:13 76° 123° (ESE) 986 3.3 -26.8°
Drops below altitude 10° 23:27:50 10° 38° (NE) 2,845 6.5 -27.0°
Sets 23:30:36 0° 38° (NE) 3,873 7.3 -27.0°
